Weather History for Orange, MA

Change the Weather History Date:

Saturday, June 8, 2013

  Actual Average Record
Temperature  
Mean Temperature 62 °F -  
Max Temperature 73 °F 71 °F 91 °F (2008)
Min Temperature 51 °F 48 °F 41 °F (2002)
Degree Days  
Heating Degree Days 3    
Growing Degree Days 12 (Base 50)    
Moisture  
Dew Point 54 °F    
Average Humidity 80    
Maximum Humidity 97    
Minimum Humidity 57    
Precipitation  
Precipitation 0.85 in - - ()
Sea Level Pressure  
Sea Level Pressure 29.82 in    
Wind  
Wind Speed 7 mph (NW)    
Max Wind Speed 14 mph    
Max Gust Speed 21 mph    
Visibility 8 miles    
Events Rain    
Averages and records for this station are not official NWS values.
T = Trace of Precipitation, MM = Missing Value Source: NWS Daily Summary

Daily Weather History Graph

Daily Weather History Graph

Search for Another Location

Airport:

Trip Planner

Search our weather history database for the weather conditions in past years. The results will help you decide how hot, cold, wet, or windy it might be!

Date:

Astronomy

Jun. 08, 2013 Rise Set
Actual Time 5:11 AM EDT 8:25 PM EDT
Civil Twilight 4:37 AM EDT 8:59 PM EDT
Nautical Twilight 3:52 AM EDT 9:44 PM EDT
Astronomical Twilight 2:58 AM EDT 10:38 PM EDT
Moon 5:18 AM EDT (6/8) 8:24 PM EDT (6/8)
Length of Visible Light 16h 22m
Length of Day
15h 13m
New Moon, 0% of the Moon is Illuminated
Jun 8
New Moon
Jun 16
First Quarter
Jun 23
Full
Jun 30
Last Quarter
Jul 8
New

Hourly Weather History & Observations

Time (EDT) Temp. Dew Point Humidity Pressure Visibility Wind Dir Wind Speed Gust Speed Precip Events Conditions
12:03 AM 51.8 °F 48.2 °F 88% 29.83 in 8.0 mi Variable 5.8 mph - 0.02 in Rain Light Rain
12:52 AM 52.0 °F 48.9 °F 89% 29.78 in 4.0 mi NNE 6.9 mph - 0.13 in Rain Heavy Rain
1:28 AM 51.8 °F 48.2 °F 88% 29.78 in 2.5 mi NNW 5.8 mph - 0.16 in Rain Heavy Rain
1:52 AM 51.1 °F 48.9 °F 92% 29.78 in 3.0 mi North 5.8 mph - 0.38 in Rain Heavy Rain
2:52 AM 51.1 °F 48.9 °F 92% 29.73 in 6.0 mi North 10.4 mph - 0.09 in Rain Light Rain
3:52 AM 51.1 °F 50.0 °F 96% 29.71 in 4.0 mi North 6.9 mph - 0.04 in Rain Light Rain
4:52 AM 52.0 °F 50.0 °F 93% 29.69 in 7.0 mi NNW 9.2 mph - 0.09 in Rain Light Rain
5:52 AM 52.0 °F 51.1 °F 97% 29.69 in 3.0 mi NNW 6.9 mph - 0.09 in Rain Rain
6:22 AM 53.6 °F 51.8 °F 94% 29.68 in 10.0 mi North 8.1 mph - 0.01 in Rain Light Rain
6:52 AM 53.1 °F 51.1 °F 93% 29.68 in 4.0 mi NNW 6.9 mph - 0.03 in Rain Light Rain
7:19 AM 53.6 °F 51.8 °F 94% 29.70 in 10.0 mi WNW 9.2 mph - 0.00 in   Overcast
7:52 AM 54.0 °F 52.0 °F 93% 29.72 in 9.0 mi NNW 10.4 mph - 0.00 in   Overcast
8:52 AM 55.9 °F 53.1 °F 90% 29.77 in 10.0 mi NW 9.2 mph - N/A   Overcast
9:50 AM 60.8 °F 53.6 °F 77% 29.77 in 10.0 mi NW 12.7 mph - N/A   Mostly Cloudy
9:52 AM 61.0 °F 54.0 °F 78% 29.78 in 10.0 mi NNW 9.2 mph - N/A   Mostly Cloudy
10:52 AM 64.0 °F 55.9 °F 75% 29.80 in 10.0 mi Variable 6.9 mph - N/A   Overcast
11:52 AM 68.0 °F 57.0 °F 68% 29.82 in 10.0 mi WSW 8.1 mph - N/A   Mostly Cloudy
12:12 PM 71.6 °F 57.2 °F 60% 29.82 in 10.0 mi WNW 10.4 mph - N/A   Scattered Clouds
12:25 PM 71.6 °F 59.0 °F 64% 29.82 in 10.0 mi WNW 9.2 mph 16.1 mph N/A   Mostly Cloudy
12:47 PM 71.6 °F 57.2 °F 60% 29.82 in 10.0 mi West 10.4 mph 17.3 mph N/A   Scattered Clouds
12:52 PM 72.0 °F 57.9 °F 61% 29.83 in 10.0 mi WNW 8.1 mph 17.3 mph N/A   Scattered Clouds
1:52 PM 72.0 °F 57.9 °F 61% 29.84 in 10.0 mi West 10.4 mph 18.4 mph N/A   Partly Cloudy
2:52 PM 73.0 °F 57.9 °F 59% 29.86 in 10.0 mi West 13.8 mph 19.6 mph N/A   Scattered Clouds
3:52 PM 73.0 °F 57.0 °F 57% 29.88 in 10.0 mi WNW 12.7 mph 20.7 mph N/A   Partly Cloudy
4:52 PM 71.1 °F 57.0 °F 61% 29.92 in 10.0 mi West 10.4 mph - N/A   Overcast
5:52 PM 68.0 °F 57.0 °F 68% 29.92 in 10.0 mi NW 5.8 mph - N/A   Overcast
6:52 PM 68.0 °F 57.0 °F 68% 29.94 in 10.0 mi West 4.6 mph - N/A   Scattered Clouds
7:52 PM 66.0 °F 59.0 °F 78% 29.97 in 10.0 mi West 3.5 mph - N/A   Clear
8:52 PM 63.0 °F 57.0 °F 81% 29.97 in 10.0 mi NE 3.5 mph - N/A   Clear
9:52 PM 60.1 °F 57.0 °F 90% 30.00 in 10.0 mi Calm Calm - N/A   Clear
10:52 PM 57.9 °F 55.9 °F 93% 30.02 in 10.0 mi Calm Calm - N/A   Scattered Clouds
11:52 PM 57.9 °F 55.9 °F 93% 30.04 in 10.0 mi Calm Calm - N/A   Overcast